[[{"header":{"parameterUnit":"m.s-1","parameterCategory":1,"la1":30.2992,"la2":30.254,"lo1":-89.0895,"lo2":-89.0443,"dy":0.0025,"dx":0.0025,"nx":19,"ny":19,"refTime":"2026-04-20T21:00:00:Z","depth":0,"parameterNumber":2,"parameterNumberName":"U-component_of_WINDS"},"data":[0,0,0,-5.5094,-5.5096,-5.5197,-5.5198,-5.536,-5.5362,0,0,0,0,0,0,0,0,0,0,0,-5.5083,-5.5085,-5.5093,-5.5096,-5.5197,-5.5198,-5.536,-5.5362,0,0,0,0,0,0,0,0,0,0,0,-5.5082,-5.5084,-5.5086,-5.5097,-5.5197,-5.5198,-5.5359,-5.5271,0,0,0,0,0,0,0,0,0,0,-5.5168,-5.5176,-5.5084,-5.5086,-5.5098,-5.5197,-5.5198,-5.5267,-5.5277,-5.5328,0,-5.5378,0,-5.5373,-5.5375,-5.5375,0,0,0,-5.5082,-5.5168,-5.5178,-5.5087,-5.5099,-5.5197,-5.5148,-5.5272,-5.5284,-5.5342,-5.538,-5.5385,-5.5376,-5.5376,-5.5377,-5.5721,-5.5723,0,0,-5.5077,-5.5111,-5.517,-5.5186,-5.5172,-5.5145,-5.5151,-5.5279,-5.5323,-5.5381,-5.5389,-5.5378,-5.5377,-5.5379,-5.5719,-5.5722,0,0,0,-5.507,-5.5108,-5.5114,-5.518,-5.5196,-5.5148,-5.5155,-5.5317,-5.5316,-5.539,-5.538,-5.5378,-5.5381,-5.5716,-5.572,-5.5869,0,0,0,-5.5066,-5.5104,-5.5112,-5.5135,-5.5194,-5.5258,-5.5191,-5.5307,-5.532,-5.5379,-5.5378,-5.5383,-5.5714,-5.5718,-5.5859,-5.5935,0,0,0,-5.507,-5.5104,-5.5125,-5.5136,-5.5181,-5.5255,-5.526,-5.5309,-5.5315,-5.5376,-5.5383,-5.5712,-5.5717,-5.5851,-5.592,-5.6039,0,0,0,-5.5083,-5.5254,-5.5128,-5.5315,-5.518,-5.5345,-5.5259,-5.538,-5.5449,-5.5379,-5.5714,-5.5719,-5.5848,-5.5911,-5.603,-5.6148,-5.6199,0,0,-5.5318,-5.5284,-5.5391,-5.5281,-5.5478,-5.5327,-5.5545,-5.5575,-5.5548,-5.5665,-5.5673,-5.5862,-5.5919,-5.6037,-5.6466,-5.6507,0,0,0,-5.5477,-5.5556,-5.56,-5.5668,-5.5695,-5.5726,-5.5719,-5.573,-5.5828,-5.5615,-5.5934,-5.5966,-5.6034,-5.6089,-5.6124,-5.6182,-5.5745,-5.5744,-5.5744,-5.5861,-5.5819,-5.5995,-5.5966,-5.6033,-5.6026,-5.6077,-5.6092,-5.6027,-5.6104,-5.614,-5.6405,-5.6471,-5.6497,-5.6558,-5.6194,-5.6195,-5.6196,-5.6196,-5.6205,-5.6311,-5.6224,-5.6364,-5.6319,-5.6436,-5.6436,-5.6388,-5.6492,-5.6374,-5.6431,-5.631,-5.6543,-5.6595,-5.6207,-5.6205,-5.6204,-5.6202,-5.6202,-5.6456,-5.65,-5.6511,-5.6607,-5.6686,-5.665,-5.6756,-5.6709,-5.6666,-5.6723,-5.6759,-5.6756,-5.6752,-5.6742,-5.6743,-5.6744,-5.6745,-5.6745,-5.6746,-5.6713,-5.6721,-5.6815,-5.6861,-5.69,-5.6946,-5.6941,-5.6979,-5.701,-5.6968,-5.6968,-5.6901,-5.6572,-5.6493,-5.676,-5.6758,-5.6756,-5.6755,-5.6754,-5.7086,-5.6994,-5.7141,-5.7181,-5.7232,-5.7316,-5.7255,-5.7337,-5.7361,-5.7416,-5.7335,-5.7098,-5.706,-5.7032,-5.6967,-5.734,-5.734,-5.734,-5.734,-5.7301,-5.7276,-5.7417,-5.7485,-5.7545,-5.7506,-5.7676,-5.7675,-5.7659,-5.7673,-5.7611,-5.7519,-5.7492,-5.747,-5.7432,-5.7371,-5.7839,-5.784,-5.784,-5.753,-5.7509,-5.7663,-5.7646,-5.7683,-5.7717,-5.7877,-5.796,-5.7922,-5.786,-5.7683,-5.7662,-5.7513,-5.7466,-5.7403,-5.7346,-5.7232,0,0]},{"header":{"parameterUnit":"m.s-1","parameterCategory":1,"la1":30.2992,"la2":30.254,"lo1":-89.0895,"lo2":-89.0443,"dy":0.0025,"dx":0.0025,"nx":19,"ny":19,"refTime":"2026-04-20T21:00:00:Z","depth":0,"parameterNumber":3,"parameterNumberName":"V-component_of_WINDS"},"data":[0,0,0,-2.9824,-2.9824,-2.9818,-2.9818,-2.9829,-2.9829,0,0,0,0,0,0,0,0,0,0,0,-2.9838,-2.9838,-2.9824,-2.9824,-2.9818,-2.9818,-2.9828,-2.9829,0,0,0,0,0,0,0,0,0,0,0,-2.9838,-2.9838,-2.9839,-2.9824,-2.9818,-2.9818,-2.9828,-2.9826,0,0,0,0,0,0,0,0,0,0,-2.9829,-2.9854,-2.9838,-2.9839,-2.9824,-2.9818,-2.9818,-2.9826,-2.9827,-2.984,0,-2.9855,0,-2.9842,-2.9831,-2.9831,0,0,0,-2.9815,-2.9854,-2.9841,-2.9839,-2.9824,-2.9818,-2.9818,-2.9826,-2.9827,-2.9841,-2.9855,-2.9855,-2.9842,-2.9831,-2.9831,-2.9937,-2.9938,0,0,-2.9816,-2.9843,-2.9841,-2.9842,-2.9844,-2.9818,-2.9818,-2.9826,-2.9844,-2.9855,-2.9855,-2.9843,-2.9831,-2.9831,-2.9936,-2.9937,0,0,0,-2.9823,-2.9844,-2.9831,-2.9842,-2.984,-2.9818,-2.9818,-2.9843,-2.9836,-2.9855,-2.9843,-2.9831,-2.9832,-2.9935,-2.9936,-3.0008,0,0,0,-2.9823,-2.9848,-2.9831,-2.9848,-2.984,-2.9841,-2.9835,-2.9836,-2.9836,-2.9843,-2.9831,-2.9832,-2.9934,-2.9936,-3.0004,-3.0038,0,0,0,-2.9834,-2.9849,-2.9852,-2.985,-2.9848,-2.984,-2.9834,-2.9835,-2.9829,-2.9831,-2.9832,-2.9933,-2.9935,-3.0,-3.0031,-3.0073,0,0,0,-2.9855,-2.9916,-2.9854,-2.9918,-2.9848,-2.9885,-2.9834,-2.986,-2.987,-2.9832,-2.9934,-2.9936,-2.9999,-3.0027,-3.007,-3.0114,-3.0135,0,0,-2.9948,-2.9929,-2.9964,-2.9908,-2.9963,-2.9884,-2.9949,-2.9932,-2.9907,-2.9928,-2.993,-3.0005,-3.0031,-3.0073,-3.0242,-3.0259,0,0,0,-3.0003,-3.0029,-3.0037,-3.0048,-3.0036,-3.0029,-2.9999,-2.9993,-3.0009,-2.9924,-3.003,-3.0045,-3.0068,-3.0088,-3.0103,-3.0121,-2.9946,-2.9946,-2.9946,-3.0175,-3.0139,-3.0195,-3.0158,-3.0169,-3.0137,-3.0143,-3.0129,-3.009,-3.0116,-3.0122,-3.0229,-3.0254,-3.0264,-3.0284,-3.0142,-3.0142,-3.0143,-3.0143,-3.0308,-3.0339,-3.0285,-3.032,-3.0281,-3.031,-3.0282,-3.0253,-3.0274,-3.0222,-3.0241,-3.0187,-3.0284,-3.0299,-3.0148,-3.0147,-3.0146,-3.0146,-3.0145,-3.0417,-3.0425,-3.0416,-3.0427,-3.044,-3.04,-3.0423,-3.0387,-3.0353,-3.0372,-3.0375,-3.0373,-3.0368,-3.0376,-3.0376,-3.0376,-3.0377,-3.0377,-3.0377,-3.0534,-3.0521,-3.0545,-3.0537,-3.0538,-3.0536,-3.0504,-3.0505,-3.0496,-3.0468,-3.0468,-3.0427,-3.03,-3.0269,-3.0383,-3.0382,-3.0381,-3.0381,-3.038,-3.0683,-3.0643,-3.068,-3.0682,-3.0669,-3.0684,-3.0637,-3.0642,-3.0637,-3.0649,-3.0603,-3.0515,-3.0493,-3.0481,-3.0456,-3.0611,-3.0611,-3.0611,-3.0611,-3.0776,-3.0761,-3.0789,-3.0794,-3.0795,-3.0757,-3.0799,-3.0774,-3.0743,-3.0737,-3.0709,-3.0672,-3.0662,-3.0646,-3.063,-3.0606,-3.0795,-3.0796,-3.0796,-3.0866,-3.0849,-3.0892,-3.086,-3.0847,-3.0837,-3.0875,-3.0883,-3.0839,-3.0802,-3.0732,-3.0725,-3.0664,-3.0646,-3.0609,-3.0586,-3.054,0,0]}]]